Location: Tierra del Sol
(32.6128°N, 116.3319°W)
Time: 22:12:37
(UTC-08:00)

Amateur Radio Satellites - All Passes

Search period start: 21 February 2017 21:42
Search period end: 22 February 2017 21:42
Location: Tierra del Sol, 32.6128°N, 116.3319°W

Satellite Date Start Highest point End Downlink Frequencies (MHz)
Time Altitude Azimuth
SO-50 21 Feb 21:52:29 21:56:48 36° 113° (ESE) 22:01:03 436.795
ESTCUBE 1 21 Feb 21:53:21 21:57:16 29° 72° (ENE) 22:01:11 437.505/2401.250
PRISM 21 Feb 21:53:28 21:56:59 29° 288° (WNW) 22:00:31 437.425
DELFI C3 21 Feb 21:55:35 21:57:16 12° 266° (W) 21:58:58 145.870
RS-15 21 Feb 21:57:54 22:01:20 11° 350° (N) 22:04:48 29.354- 29.394
UNISAT 6 21 Feb 22:25:32 22:29:54 39° 287° (WNW) 22:34:12 437.425
TIGRISAT 21 Feb 22:27:04 22:31:28 40° 287° (WNW) 22:35:48 435.000
DUCHIFAT 1 21 Feb 22:33:37 22:35:51 14° 94° (E) 22:38:05 145.980
VELOX 1 21 Feb 22:36:16 22:39:59 28° 71° (ENE) 22:43:43 145.980
EO-79 21 Feb 22:38:51 22:42:03 20° 96° (E) 22:45:13 145.935-145.965
FO-29 21 Feb 22:41:42 22:49:26 84° 284° (WNW) 22:56:22 435.910
DX 1 21 Feb 22:42:45 22:44:55 14° 67° (ENE) 22:47:05 434.975-435.025
O/OREOS (USA 219) 21 Feb 22:47:01 22:51:28 78° 108° (ESE) 22:55:57 437.305
JUGNU 21 Feb 22:48:17 22:52:37 21° 173° (S) 22:56:59 437.505
POLYITAN 1 21 Feb 22:54:32 22:58:24 32° 98° (E) 23:02:13 437.675
QB50P2 21 Feb 22:57:13 23:01:12 37° 99° (E) 23:05:10 145.880/145.840
NANOSAT C BR1 21 Feb 22:57:52 23:01:40 31° 98° (E) 23:05:28 145.865
50 SAT 21 Feb 23:00:27 23:03:35 31° 74° (ENE) 23:06:44 437.505
UKube-1 21 Feb 23:02:18 23:04:58 16° 68° (ENE) 23:07:39 .
YUBILEINY 21 Feb 23:09:46 23:16:48 29° 275° (W) 23:23:51 435.215
SPROUT 21 Feb 23:13:32 23:17:42 61° 75° (ENE) 23:21:54 437.525
ESTCUBE 1 21 Feb 23:30:43 23:34:01 20° 264° (W) 23:37:20 437.505/2401.250
AIST 2D 21 Feb 23:33:44 23:36:58 33° 286° (WNW) 23:40:11 435.315
SO-50 21 Feb 23:33:45 23:37:18 21° 307° (NW) 23:40:50 436.795
SRMSAT 21 Feb 23:41:22 23:44:19 14° 165° (SSE) 23:47:16 437.500
BUGSAT 1 21 Feb 23:45:23 23:49:14 34° 98° (E) 23:53:06 437.445
DUCHIFAT 1 22 Feb 00:07:41 00:11:36 37° 287° (WNW) 00:15:30 145.980
VELOX 1 22 Feb 00:13:11 00:16:23 20° 264° (W) 00:19:36 145.980
EO-79 22 Feb 00:14:09 00:17:43 26° 289° (WNW) 00:21:17 145.935-145.965
RS-15 22 Feb 00:14:18 00:21:52 18° 29° (NNE) 00:29:16 29.354- 29.394
DX 1 22 Feb 00:16:37 00:20:42 41° 260° (W) 00:24:47 434.975-435.025
FO-29 22 Feb 00:29:31 00:33:06 14° 302° (WNW) 00:36:35 435.910
POLYITAN 1 22 Feb 00:31:05 00:33:53 17° 291° (WNW) 00:36:41 437.675
QB50P2 22 Feb 00:34:14 00:36:38 15° 292° (WNW) 00:39:01 145.880/145.840
NANOSAT C BR1 22 Feb 00:34:19 00:37:06 17° 291° (WNW) 00:39:52 145.865
50 SAT 22 Feb 00:36:14 00:36:47 10° 266° (W) 00:37:20 437.505
JUGNU 22 Feb 00:36:30 00:41:02 23° 183° (S) 00:45:36 437.505
UKube-1 22 Feb 00:36:48 00:40:41 33° 261° (W) 00:44:35 .
ITUPSAT 1 22 Feb 00:45:16 00:48:02 15° 66° (ENE) 00:50:48 437.325
Oscar 19 22 Feb 00:49:35 00:54:30 46° 100° (E) 00:59:23 437.125/150
BEESAT 22 Feb 00:53:48 00:57:11 20° 68° (ENE) 01:00:34 436.000
Gurwin Techsat 1B 22 Feb 01:03:42 01:08:30 34° 98° (E) 01:13:16 435.225
BUGSAT 1 22 Feb 01:21:42 01:24:17 16° 291° (WNW) 01:26:52 437.445
SRMSAT 22 Feb 01:28:21 01:32:52 22° 174° (S) 01:37:23 437.500
PCSat 22 Feb 01:28:41 01:33:34 33° 58° (ENE) 01:38:25 145.827
MOZHAYETS 4 22 Feb 01:48:13 01:51:54 24° 70° (ENE) 01:55:36
AO-7 22 Feb 02:00:03 02:05:37 19° 95° (E) 02:11:07 .
ITUPSAT 1 22 Feb 02:20:50 02:25:25 46° 260° (W) 02:30:03 437.325
RS-15 22 Feb 02:25:42 02:37:48 59° 56° (ENE) 02:49:19 29.354- 29.394
JUGNU 22 Feb 02:25:55 02:29:26 16° 193° (SSW) 02:32:58 437.505
Oscar 19 22 Feb 02:30:11 02:33:23 17° 294° (WNW) 02:36:36 437.125/150
BEESAT 22 Feb 02:30:19 02:34:40 35° 262° (W) 02:39:02 436.000
CUBESAT XI-V 22 Feb 02:39:26 02:41:15 12° 66° (ENE) 02:43:05 437.345
Gurwin Techsat 1B 22 Feb 02:44:00 02:48:13 24° 292° (WNW) 02:52:24 435.225
KKS-1 22 Feb 02:46:43 02:50:21 26° 70° (ENE) 02:53:59 437.445
ITAMSAT 1 22 Feb 02:53:53 02:59:08 72° 102° (ESE) 03:04:19 435.822/435.867
PCSat 22 Feb 03:12:17 03:16:46 27° 253° (WSW) 03:21:14 145.827
SRMSAT 22 Feb 03:16:50 03:21:27 23° 184° (S) 03:26:03 437.500
MOZHAYETS 4 22 Feb 03:25:01 03:28:53 26° 264° (W) 03:32:48
STARS 22 Feb 03:30:56 03:34:53 35° 72° (ENE) 03:38:51 437.465
AO-85 22 Feb 03:35:44 03:39:32 24° 112° (ESE) 03:43:07 145.980
M-CUBED/EXP-1 PRIME 22 Feb 03:39:15 03:42:15 31° 70° (ENE) 03:45:11 437.505
AO-7 22 Feb 03:50:37 03:58:54 73° 290° (WNW) 04:07:07 .
CUBESAT XI-V 22 Feb 04:13:31 04:18:06 55° 260° (W) 04:22:41 437.345
KKS-1 22 Feb 04:23:23 04:26:49 22° 264° (W) 04:30:15 437.445
ITAMSAT 1 22 Feb 04:36:11 04:37:54 12° 297° (WNW) 04:39:37 435.822/435.867
RS-15 22 Feb 04:39:08 04:49:34 36° 255° (WSW) 04:59:39 29.354- 29.394
SRMSAT 22 Feb 05:06:32 05:10:00 16° 194° (SSW) 05:13:27 437.500
STARS 22 Feb 05:08:40 05:11:17 16° 265° (W) 05:13:54 437.465
XW-2F 22 Feb 05:12:07 05:15:02 21° 96° (E) 05:17:54 145.980 - 146.000
KAITUO 1B 22 Feb 05:13:48 05:16:24 18° 95° (E) 05:18:59 145.475/437.950
XW-2D 22 Feb 05:14:18 05:17:25 24° 96° (E) 05:20:30 145.860 - 145.880
CUTE-I 22 Feb 05:15:14 05:19:41 26° 96° (E) 05:24:06 437.470
AO-85 22 Feb 05:15:51 05:19:49 27° 303° (WNW) 05:23:33 145.980
XW-2B 22 Feb 05:19:09 05:22:24 26° 97° (E) 05:25:37 145.730 - 145.750
BEESAT 3 22 Feb 05:21:31 05:23:25 13° 108° (ESE) 05:25:19 437.485
XW-2C 22 Feb 05:27:24 05:30:56 35° 98° (E) 05:34:24 145.795 - 145.815
LilacSat-2 22 Feb 05:40:05 05:43:53 56° 100° (E) 05:47:37 437.200
AO-7 22 Feb 05:46:57 05:50:12 13° 307° (NW) 05:53:29 .
NUDT-PHONESAT 22 Feb 05:52:14 05:55:59 63° 100° (E) 05:59:41 437.300
BEESAT 2 22 Feb 05:52:19 05:53:36 11° 108° (ESE) 05:54:53 435.950
DOVE 4 22 Feb 06:00:44 06:05:26 79° 283° (WNW) 06:10:25 437.250
HO-68 22 Feb 06:23:34 06:29:20 26° 96° (E) 06:35:03 435.675
STRAND 1 22 Feb 06:24:55 06:30:02 85° 77° (ENE) 06:35:13 437.568
CUTE 1.7 + AOD 2 22 Feb 06:27:38 06:30:32 18° 95° (E) 06:33:24 437.475
XW-2A 22 Feb 06:29:25 06:32:25 27° 97° (E) 06:35:24 145.665 - 145.685
SO-50 22 Feb 06:30:32 06:31:28 11° 47° (NE) 06:32:25 436.795
XW-2F 22 Feb 06:46:15 06:49:01 19° 289° (WNW) 06:51:46 145.980 - 146.000
KAITUO 1B 22 Feb 06:47:23 06:50:20 22° 288° (WNW) 06:53:14 145.475/437.950
XW-2D 22 Feb 06:48:51 06:51:24 17° 290° (WNW) 06:53:56 145.860 - 145.880
XW-2B 22 Feb 06:54:01 06:56:20 16° 290° (WNW) 06:58:38 145.730 - 145.750
CUTE-I 22 Feb 06:54:56 06:59:39 32° 290° (WNW) 07:04:22 437.470
BEESAT 3 22 Feb 06:57:04 07:00:38 35° 302° (WNW) 07:04:17 437.485
XW-2C 22 Feb 07:03:14 07:04:45 12° 291° (WNW) 07:06:15 145.795 - 145.815
ZACube-1 22 Feb 07:23:42 07:25:28 12° 92° (E) 07:27:15 437.345
BEESAT 2 22 Feb 07:27:11 07:30:55 42° 301° (WNW) 07:34:42 435.950
ISS 22 Feb 07:28:38 07:31:29 27° 130° (SE) 07:34:19 437.550
SEEDS 22 Feb 07:30:43 07:34:53 73° 101° (E) 07:39:01 437.485
AAUSAT CUBESAT 2 22 Feb 07:31:02 07:34:42 31° 97° (E) 07:38:21 437.432
CUBEBUG 2 22 Feb 07:43:19 07:48:04 67° 101° (E) 07:52:44 437.445
Tancredo 1 22 Feb 08:02:12 08:05:26 79° 135° (SE) 08:08:41 437.200
CUTE 1.7 + AOD 2 22 Feb 08:02:44 08:06:19 28° 288° (WNW) 08:09:54 437.475
XW-2A 22 Feb 08:03:29 08:04:53 12° 290° (WNW) 08:06:16 145.665 - 145.685
SO-50 22 Feb 08:07:57 08:12:26 76° 243° (WSW) 08:16:53 436.795
HO-68 22 Feb 08:10:23 08:17:11 49° 291° (WNW) 08:23:58 435.675
AO-73 22 Feb 08:12:05 08:16:25 42° 98° (E) 08:20:39 145.935
Oscar 11 22 Feb 08:23:18 08:27:30 49° 99° (E) 08:31:40 .
UWE-3 22 Feb 08:28:22 08:32:59 61° 284° (WNW) 08:37:31 435.000/436.395/437.385
PRISM 22 Feb 08:37:23 08:41:29 81° 259° (W) 08:45:35 437.425
FO-29 22 Feb 08:48:24 08:54:08 29° 65° (ENE) 09:00:22 435.910
ZACube-1 22 Feb 08:57:35 09:01:58 48° 286° (WNW) 09:06:17 437.345
O/OREOS (USA 219) 22 Feb 09:01:25 09:05:59 70° 70° (ENE) 09:10:33 437.305
ISS 22 Feb 09:05:17 09:07:55 22° 324° (NW) 09:10:33 437.550
AAUSAT CUBESAT 2 22 Feb 09:07:24 09:09:52 16° 291° (WNW) 09:12:19 437.432
UNISAT 6 22 Feb 09:19:06 09:23:31 77° 259° (W) 09:28:03 437.425
TIGRISAT 22 Feb 09:20:30 09:24:54 81° 258° (WSW) 09:29:27 435.000
CUBEBUG 2 22 Feb 09:23:02 09:24:01 11° 295° (WNW) 09:25:00 437.445
DELFI C3 22 Feb 09:34:34 09:38:29 70° 282° (WNW) 09:42:21 145.870
Tancredo 1 22 Feb 09:41:01 09:42:06 11° 330° (NNW) 09:43:10 437.200
POLYITAN 1 22 Feb 09:44:08 09:46:17 14° 68° (ENE) 09:48:28 437.675
QB50P2 22 Feb 09:46:28 09:49:04 16° 69° (ENE) 09:51:40 145.880/145.840
NANOSAT C BR1 22 Feb 09:47:02 09:49:06 13° 68° (ENE) 09:51:10 145.865
AO-73 22 Feb 09:49:45 09:52:13 15° 292° (WNW) 09:54:39 145.935
Oscar 11 22 Feb 10:01:43 10:03:09 11° 293° (WNW) 10:04:33 .
AIST 2D 22 Feb 10:03:25 10:06:40 35° 75° (ENE) 10:09:57 435.315
YUBILEINY 22 Feb 10:06:38 10:15:22 68° 92° (E) 10:24:05 435.215
FO-29 22 Feb 10:32:19 10:38:42 46° 262° (W) 10:45:51 435.910
BUGSAT 1 22 Feb 10:32:28 10:34:17 13° 67° (ENE) 10:36:05 437.445
DUCHIFAT 1 22 Feb 10:54:14 10:58:24 85° 77° (ENE) 11:02:37 145.980
EO-79 22 Feb 11:01:03 11:05:12 64° 258° (WSW) 11:09:25 145.935-145.965
SPROUT 22 Feb 11:05:06 11:07:33 15° 94° (E) 11:10:00 437.525
POLYITAN 1 22 Feb 11:17:45 11:21:41 38° 261° (W) 11:25:40 437.675
NANOSAT C BR1 22 Feb 11:20:30 11:24:25 39° 261° (W) 11:28:23 145.865
QB50P2 22 Feb 11:20:44 11:24:32 33° 262° (W) 11:28:22 145.880/145.840
ESTCUBE 1 22 Feb 11:26:13 11:30:40 66° 284° (WNW) 11:35:06 437.505/2401.250
Oscar 19 22 Feb 12:01:55 12:06:46 43° 72° (ENE) 12:11:36 437.125/150
50 SAT 22 Feb 12:02:15 12:05:43 70° 101° (ESE) 12:09:10 437.505
BUGSAT 1 22 Feb 12:05:30 12:09:15 37° 262° (W) 12:13:02 437.445
VELOX 1 22 Feb 12:06:08 12:10:33 76° 284° (WNW) 12:14:57 145.980
YUBILEINY 22 Feb 12:06:24 12:12:45 22° 289° (WNW) 12:19:09 435.215
DX 1 22 Feb 12:08:56 12:13:06 45° 100° (E) 12:17:17 434.975-435.025
Gurwin Techsat 1B 22 Feb 12:20:21 12:25:07 35° 71° (ENE) 12:29:54 435.225
UKube-1 22 Feb 12:27:44 12:31:57 53° 101° (E) 12:36:10 .
SPROUT 22 Feb 12:39:36 12:43:32 35° 287° (WNW) 12:47:27 437.525
AO-7 22 Feb 12:54:59 13:00:33 20° 57° (ENE) 13:06:07 .
Oscar 19 22 Feb 13:42:47 13:46:11 18° 265° (W) 13:49:36 437.125/150
DX 1 22 Feb 13:46:56 13:48:51 13° 293° (WNW) 13:50:45 434.975-435.025
AO-85 22 Feb 13:50:35 13:54:29 65° 62° (ENE) 13:58:27 145.980
Gurwin Techsat 1B 22 Feb 14:00:56 14:05:03 23° 264° (W) 14:09:13 435.225
UKube-1 22 Feb 14:06:28 14:07:28 11° 294° (WNW) 14:08:28 .
ITAMSAT 1 22 Feb 14:07:13 14:12:22 69° 75° (ENE) 14:17:33 435.822/435.867
ITUPSAT 1 22 Feb 14:25:34 14:30:21 65° 102° (ESE) 14:35:05 437.325
Tancredo 1 22 Feb 14:34:07 14:35:36 13° 31° (NNE) 14:37:05 437.200
BEESAT 22 Feb 14:34:20 14:39:09 84° 104° (ESE) 14:43:55 436.000
AO-7 22 Feb 14:43:59 14:52:22 80° 254° (WSW) 15:00:46 .
BEESAT 3 22 Feb 15:17:57 15:21:27 28° 56° (NE) 15:24:55 437.485
MOZHAYETS 4 22 Feb 15:23:37 15:28:14 80° 283° (WNW) 15:32:48
ISS 22 Feb 15:35:48 15:38:59 46° 41° (NE) 15:42:08 437.550
BEESAT 2 22 Feb 15:49:13 15:52:37 25° 55° (NE) 15:55:59 435.950
ITAMSAT 1 22 Feb 15:51:14 15:52:13 10° 268° (W) 15:53:12 435.822/435.867
PCSat 22 Feb 16:05:07 16:10:30 76° 113° (ESE) 16:15:56 145.827
ITUPSAT 1 22 Feb 16:06:20 16:07:33 11° 296° (WNW) 16:08:47 437.325
Tancredo 1 22 Feb 16:09:00 16:12:10 62° 227° (SW) 16:15:19 437.200
CUBESAT XI-V 22 Feb 16:14:30 16:18:59 51° 100° (E) 16:23:25 437.345
KKS-1 22 Feb 16:17:27 16:21:55 83° 285° (WNW) 16:26:24 437.445
LilacSat-2 22 Feb 16:18:47 16:21:01 15° 70° (ENE) 16:23:17 437.200
NUDT-PHONESAT 22 Feb 16:28:36 16:30:45 15° 70° (ENE) 16:32:54 437.300
CUTE-I 22 Feb 16:32:44 16:37:10 28° 69° (ENE) 16:41:38 437.470
RS-15 22 Feb 16:41:49 16:53:12 59° 110° (ESE) 17:05:04 29.354- 29.394
AO-7 22 Feb 16:43:42 16:46:03 11° 268° (W) 16:48:25 .
HO-68 22 Feb 16:51:08 16:53:37 12° 57° (ENE) 16:56:07 435.675
M-CUBED/EXP-1 PRIME 22 Feb 16:54:43 16:58:28 57° 106° (ESE) 17:02:31 437.505
BEESAT 3 22 Feb 16:56:04 16:58:49 18° 250° (WSW) 17:01:33 437.485
STARS 22 Feb 17:00:20 17:04:43 62° 285° (WNW) 17:09:05 437.465
DOVE 4 22 Feb 17:02:12 17:06:18 59° 76° (ENE) 17:10:23 437.250
ISS 22 Feb 17:14:01 17:15:05 11° 235° (SW) 17:16:08 437.550
XW-2F 22 Feb 17:21:22 17:25:11 82° 258° (WSW) 17:29:03 145.980 - 146.000
KAITUO 1B 22 Feb 17:21:50 17:25:37 83° 77° (ENE) 17:29:26 145.475/437.950
XW-2D 22 Feb 17:24:06 17:27:55 70° 259° (W) 17:31:46 145.860 - 145.880
BEESAT 2 22 Feb 17:27:10 17:30:13 21° 250° (WSW) 17:33:14 435.950
XW-2B 22 Feb 17:29:07 17:32:53 62° 260° (W) 17:36:43 145.730 - 145.750
XW-2C 22 Feb 17:37:44 17:41:25 45° 261° (W) 17:45:08 145.795 - 145.815
LilacSat-2 22 Feb 17:51:39 17:55:01 28° 263° (W) 17:58:25 437.200
PCSat 22 Feb 17:51:52 17:54:28 13° 310° (NW) 17:57:04 145.827
CUBESAT XI-V 22 Feb 17:53:56 17:55:51 12° 293° (WNW) 17:57:45 437.345
NUDT-PHONESAT 22 Feb 18:01:12 18:04:24 27° 263° (W) 18:07:39 437.300
CUTE-I 22 Feb 18:12:28 18:17:04 30° 263° (W) 18:21:42 437.470
SEEDS 22 Feb 18:18:03 18:21:37 27° 72° (ENE) 18:25:12 437.485
AAUSAT CUBESAT 2 22 Feb 18:18:31 18:20:13 12° 68° (ENE) 18:21:55 437.432
XW-2A 22 Feb 18:28:24 18:31:45 76° 258° (WSW) 18:35:10 145.665 - 145.685
HO-68 22 Feb 18:33:02 18:40:11 80° 74° (ENE) 18:47:23 435.675
CUBEBUG 2 22 Feb 18:37:05 18:40:52 30° 72° (ENE) 18:44:46 437.445
STRAND 1 22 Feb 18:40:13 18:45:05 42° 99° (E) 18:49:55 437.568
CUTE 1.7 + AOD 2 22 Feb 18:49:46 18:54:02 74° 259° (WSW) 18:58:19 437.475
RS-15 22 Feb 18:55:11 19:06:07 40° 311° (NW) 19:17:28 29.354- 29.394
AO-73 22 Feb 19:03:41 19:06:49 19° 69° (ENE) 19:10:00 145.935
Oscar 11 22 Feb 19:14:05 19:17:25 22° 70° (ENE) 19:20:46 .
UWE-3 22 Feb 19:20:17 19:24:35 59° 75° (ENE) 19:29:01 435.000/436.395/437.385
ZACube-1 22 Feb 19:48:04 19:52:25 73° 78° (ENE) 19:56:55 437.345
AAUSAT CUBESAT 2 22 Feb 19:51:18 19:55:16 42° 261° (W) 19:59:13 437.432
SEEDS 22 Feb 19:54:13 19:57:15 19° 265° (W) 20:00:17 437.485
CUBEBUG 2 22 Feb 20:14:27 20:17:29 18° 266° (W) 20:20:36 437.445
DELFI C3 22 Feb 20:15:35 20:19:08 32° 73° (ENE) 20:22:40 145.870
STRAND 1 22 Feb 20:20:22 20:23:53 19° 293° (WNW) 20:27:24 437.568
YUBILEINY 22 Feb 20:23:37 20:30:35 26° 73° (ENE) 20:37:28 435.215
PRISM 22 Feb 20:24:04 20:26:56 18° 96° (E) 20:29:47 437.425
HO-68 22 Feb 20:24:50 20:28:28 14° 267° (W) 20:32:07 435.675
AO-73 22 Feb 20:38:57 20:42:47 30° 263° (W) 20:46:44 145.935
JUGNU 22 Feb 20:46:14 20:49:08 14° 165° (SSE) 20:52:03 437.505
Oscar 11 22 Feb 20:49:46 20:53:23 25° 264° (W) 20:56:59 .
UNISAT 6 22 Feb 21:15:30 21:19:43 32° 97° (E) 21:23:51 437.425
TIGRISAT 22 Feb 21:16:46 21:20:56 31° 97° (E) 21:25:01 435.000
RS-15 22 Feb 21:18:40 21:23:41 13° 342° (NNW) 21:28:46 29.354- 29.394
O/OREOS (USA 219) 22 Feb 21:32:23 21:34:34 14° 99° (E) 21:36:46 437.305
